| time (UTC) | temp F | wind direction | speed MPH | gust MPH | rain 1hr in | rain 24hr in | rain mn in | humidity % | barometer mb |
| 20260503223049 | 69 | 216 | 0.0 | 7.0 | 0.00 | 0.00 | 0.00 | 30 | 1015.6 |
| 20260503221546 | 70 | 0 | 1.0 | 4.0 | 0.00 | 0.00 | 0.00 | 31 | 1015.7 |
| 20260503220105 | 69 | 298 | 1.0 | 7.0 | 0.00 | 0.00 | 0.00 | 30 | 1015.9 |
| 20260503214546 | 71 | 302 | 0.0 | 7.0 | 0.00 | 0.00 | 0.00 | 29 | 1015.9 |
| 20260503213049 | 71 | 313 | 0.0 | 4.0 | 0.00 | 0.00 | 0.00 | 31 | 1016.0 |
| 20260503211558 | 70 | 244 | 1.0 | 6.0 | 0.00 | 0.00 | 0.00 | 30 | 1016.1 |
| 20260503210052 | 71 | 277 | 1.0 | 4.0 | 0.00 | 0.00 | 0.00 | 29 | 1016.2 |
| 20260503204553 | 69 | 0 | 2.0 | 5.0 | 0.00 | 0.00 | 0.00 | 30 | 1016.3 |
| 20260503203050 | 69 | 295 | 1.0 | 10.0 | 0.00 | 0.00 | 0.00 | 30 | 1016.8 |
| 20260503201547 | 69 | 202 | 1.0 | 4.0 | 0.00 | 0.00 | 0.00 | 30 | 1016.7 |
| 20260503200050 | 69 | 253 | 2.0 | 6.0 | 0.00 | 0.00 | 0.00 | 30 | 1017.2 |
| 20260503194550 | 69 | 103 | 0.0 | 8.0 | 0.00 | 0.00 | 0.00 | 32 | 1017.2 |
| 20260503193050 | 68 | 57 | 1.0 | 4.0 | 0.00 | 0.00 | 0.00 | 32 | 1017.5 |
| 20260503191548 | 68 | 0 | 0.0 | 4.0 | 0.00 | 0.00 | 0.00 | 29 | 1017.8 |
| 20260503190049 | 67 | 144 | 2.0 | 6.0 | 0.00 | 0.00 | 0.00 | 28 | 1018.0 |
| 20260503184545 | 66 | 203 | 4.0 | 11.0 | 0.00 | 0.00 | 0.00 | 29 | 1018.2 |
| 20260503183043 | 66 | 102 | 4.0 | 9.0 | 0.00 | 0.00 | 0.00 | 29 | 1018.3 |
| 20260503181617 | 65 | 221 | 2.0 | 8.0 | 0.00 | 0.00 | 0.00 | 29 | 1018.4 |
| 20260503180100 | 66 | 199 | 1.0 | 7.0 | 0.00 | 0.00 | 0.00 | 31 | 1018.5 |
| 20260503174555 | 65 | 30 | 2.0 | 6.0 | 0.00 | 0.00 | 0.00 | 33 | 1018.9 |
| 20260503173056 | 65 | 240 | 2.0 | 9.0 | 0.00 | 0.00 | 0.00 | 34 | 1019.2 |
| 20260503171551 | 64 | 200 | 1.0 | 8.0 | 0.00 | 0.00 | 0.00 | 33 | 1019.3 |
| 20260503120105 | 43 | 0 | 0.0 | 1.0 | 0.00 | 0.00 | 0.00 | 80 | 1019.7 |
| 20260503100104 | 37 | 0 | 0.0 | 0.0 | 0.00 | 0.00 | 0.00 | 91 | 1018.0 |
| 20260503081558 | 37 | 0 | 0.0 | 0.0 | 0.00 | 0.00 | 0.00 | 93 | 1017.2 |
| 20260503071549 | 38 | 0 | 0.0 | 1.0 | 0.00 | 0.00 | 0.00 | 93 | 1016.4 |
| 20260503060109 | 38 | 0 | 0.0 | 0.0 | 0.00 | 0.00 | 0.00 | 92 | 1016.1 |
| 20260503054552 | 39 | 0 | 0.0 | 0.0 | 0.00 | 0.00 | 0.00 | 92 | 1016.1 |
| 20260503053048 | 39 | 0 | 0.0 | 0.0 | 0.00 | 0.00 | 0.00 | 91 | 1016.2 |
| 20260503051551 | 39 | 0 | 0.0 | 0.0 | 0.00 | 0.00 | 0.00 | 91 | 1016.1 |
| 20260503050046 | 40 | 0 | 0.0 | 0.0 | 0.00 | 0.00 | 0.00 | 91 | 1016.0 |
| 20260503044611 | 40 | 0 | 0.0 | 0.0 | 0.00 | 0.00 | 0.00 | 90 | 1016.0 |
| 20260503043050 | 41 | 0 | 0.0 | 0.0 | 0.00 | 0.00 | 0.00 | 90 | 1015.9 |
| 20260503041554 | 41 | 0 | 0.0 | 0.0 | 0.00 | 0.00 | 0.00 | 89 | 1015.8 |
| 20260503040049 | 41 | 0 | 0.0 | 0.0 | 0.00 | 0.00 | 0.00 | 88 | 1015.7 |
| 20260503034548 | 42 | 0 | 0.0 | 0.0 | 0.00 | 0.00 | 0.00 | 87 | 1015.5 |
| 20260503033046 | 43 | 0 | 0.0 | 0.0 | 0.00 | 0.00 | 0.00 | 86 | 1015.4 |
| 20260503031544 | 43 | 0 | 0.0 | 0.0 | 0.00 | 0.00 | 0.00 | 86 | 1015.3 |
| 20260503030105 | 44 | 0 | 0.0 | 0.0 | 0.00 | 0.00 | 0.00 | 84 | 1015.2 |
| 20260503024541 | 45 | 0 | 0.0 | 1.0 | 0.00 | 0.00 | 0.00 | 83 | 1015.2 |
| 20260503023049 | 45 | 0 | 0.0 | 1.0 | 0.00 | 0.00 | 0.00 | 82 | 1015.1 |
| 20260503021547 | 46 | 0 | 0.0 | 0.0 | 0.00 | 0.00 | 0.00 | 79 | 1014.9 |
| 20260503020049 | 46 | 0 | 0.0 | 1.0 | 0.00 | 0.00 | 0.00 | 78 | 1014.6 |
| 20260503014551 | 47 | 0 | 0.0 | 0.0 | 0.00 | 0.00 | 0.00 | 75 | 1014.3 |
| 20260503013057 | 48 | 0 | 0.0 | 0.0 | 0.00 | 0.00 | 0.00 | 73 | 1014.2 |
| 20260503011554 | 49 | 0 | 0.0 | 0.0 | 0.00 | 0.00 | 0.00 | 70 | 1014.1 |
| 20260503010048 | 51 | 0 | 0.0 | 0.0 | 0.00 | 0.00 | 0.00 | 66 | 1013.9 |
| 20260503004553 | 52 | 0 | 0.0 | 0.0 | 0.00 | 0.00 | 0.00 | 63 | 1013.6 |
| 20260503003049 | 54 | 0 | 0.0 | 0.0 | 0.00 | 0.00 | 0.00 | 61 | 1013.3 |
| 20260503001549 | 55 | 0 | 0.0 | 1.0 | 0.00 | 0.00 | 0.00 | 57 | 1012.8 |
| 20260503000048 | 55 | 0 | 0.0 | 0.0 | 0.00 | 0.00 | 0.00 | 53 | 1012.6 |
| 20260502234600 | 56 | 0 | 0.0 | 1.0 | 0.00 | 0.00 | 0.00 | 50 | 1012.4 |
| 20260502233050 | 58 | 0 | 0.0 | 2.0 | 0.00 | 0.00 | 0.00 | 48 | 1012.2 |
| 20260502231544 | 60 | 0 | 0.0 | 2.0 | 0.00 | 0.00 | 0.00 | 43 | 1011.9 |
| 20260502230044 | 62 | 0 | 0.0 | 2.0 | 0.00 | 0.00 | 0.00 | 41 | 1011.9 |
| 20260502224542 | 64 | 37 | 0.0 | 2.0 | 0.00 | 0.00 | 0.00 | 39 | 1011.7 |